Regional Weather Roundup
Issued by NWS

Home | Current Version | Previous Version | Text Only | Print | Product List | Glossary On
Versions: 1 2 3 4 5 6 7 8 9 10 11 12 13 14 15 16 17 18 19 20 21 22 23 24 25 26 27 28 29 30 31 32 33 34 35 36 37 38 39 40 41 42 43 44 45 46 47 48 49 50
000
ASUS43 KDTX 030810
RWRMI
MICHIGAN HOURLY REGIONAL WEATHER ROUNDUP
NATIONAL WEATHER SERVICE DETROIT/PONTIAC MI
400 AM EDT MON AUG 03 2015

NOTE: "FAIR" INDICATES FEW OR NO CLOUDS BELOW 12,000 FEET WITH NO
SIGNIFICANT WEATHER AND/OR OBSTRUCTION TO VISIBILITY.

MIZ047>049-052>055-059>063-066>070-074>076-081>083-030900-
SOUTHEAST LOWER MICHIGAN

CITY           SKY/WX    TMP DP  RH WIND       PRES   REMARKS
ADRIAN         CLOUDY    63  61  93 SW10      29.77S
ALMA           CLOUDY    62  61  98 CALM      29.72R
ANN ARBOR      CLOUDY    63  61  93 SW13G20   29.74R
BAD AXE        CLOUDY    62  60  94 SW7       29.70R
CARO           CLOUDY    62  61  97 SW5       29.69S
DETROIT CITY   CLOUDY    65  61  87 SW9       29.74R
DETROIT        CLOUDY    65  62  90 SW10      29.76R
FLINT          CLOUDY    66  61  84 SW8       29.72R
GROSSE ILE     LGT RAIN  68  64  88 S31       29.72S
HILLSDALE      CLOUDY    63  63 100 S7        29.75F
HOWELL         CLOUDY    64  62  94 SW7       29.74R

CITY           SKY/WX    TMP DP  RH WIND       PRES   REMARKS
JACKSON        CLOUDY    63  61  93 SW7       29.74R
LAMBERTVILLE   RAIN      64  61  91 S16G28    29.69F
LANSING        CLOUDY    61  59  94 SW3       29.73S
LAPEER         CLOUDY    63  62  97 SW7       29.71S
MASON          CLOUDY    62  60  94 SW3       29.73S
MONROE         LGT RAIN  64  63  95 S18G31    29.74F
PONTIAC        CLOUDY    63  61  93 SW10      29.74R
PORT HURON     CLOUDY    63  63 100 SW6       29.72R
TRI CITIES     CLOUDY    64  61  90 SW8       29.71R
MIDLAND        FAIR      61  60  97 CALM      29.70R
TROY           CLOUDY    64  63  94 SW7       29.77R
SAGINAW HB     CLOUDY    63  61  94 SW7       29.69S
$$
MIZ043>046-050>051-056>058-064>065-071>073-077>080-030900-
SOUTHWEST LOWER MICHIGAN

CITY           SKY/WX    TMP DP  RH WIND       PRES   REMARKS
BATTLE CREEK   CLOUDY    65  62  90 SW7       29.74F
BENTON HARBOR  MOCLDY    66  63  90 CALM      29.74S
BIG RAPIDS     PTCLDY    58  58  97 CALM      29.73R
COLDWATER      CLOUDY    62  61  96 SW6       29.75S
FREMONT        FOG       58  58 100 CALM      29.73S VSB 1/2
HOLLAND        MOCLDY    65  63  93 CALM      29.73S
GRAND RAPIDS   CLOUDY    64  64 100 W5        29.73R
IONIA          MOCLDY    64  63  97 CALM      29.72S
KALAMAZOO      CLOUDY    65  62  90 W5        29.74F
LUDINGTON      FOG       58  56  93 CALM      29.72S VSB 1/2
MARSHALL       CLOUDY    64  61  92 SW3       29.74S
MOUNT PLEASANT CLOUDY    62  60  93 W3        29.71R
MUSKEGON       MOCLDY    64  60  87 CALM      29.73S
SOUTH HAVEN    CLOUDY    64  62  93 CALM      29.74R
$$
MIZ016>042-030900-
NORTHERN LOWER MICHIGAN

CITY           SKY/WX    TMP DP  RH WIND       PRES   REMARKS
ALPENA         MOCLDY    62  59  90 W6        29.65R
BEAVER ISLAND    N/A     56  56  98 CALM      29.67R
BELLAIRE       FOG       55  55  97 CALM      29.68S VSB 1/2
CADILLAC       FOG       59  59 100 W3        29.72R VSB 1/4
CHARLEVOIX     CLEAR     60  59  97 SW3       29.69S
FRANKFORT      FOG       56  56 100 CALM      29.70R VSB 1/2
GAYLORD        PTCLDY    59  59 100 W6        29.69R
GRAYLING       CLOUDY    59  59  98 CALM      29.70R FOG
HARBOR SPRINGS CLEAR     60  57  92 CALM      29.66S
HOUGHTON LAKE  FOG       59  58  96 NW7       29.71R VSB 3/4
MANISTEE       CLOUDY    55  52  88 E3        29.72R VSB 1/4
OSCODA         CLOUDY    61  60  97 SW6       29.66R
PELLSTON       CLEAR     56  55  97 NW3       29.66R
ROGERS CITY    CLEAR     61  60  96 W6        29.65R
TRAVERSE CITY  FOG       62  61  96 CALM      29.68R VSB 1/2
$$
MIZ007>008-015-030900-
EASTERN UPPER MICHIGAN

CITY           SKY/WX    TMP DP  RH WIND       PRES   REMARKS
KINROSS        CLEAR     55  55 100 W5        29.63S
MACKINAC ISLAN   N/A     60  59  98 W7        29.65R
NEWBERRY       FOG       49  49  99 CALM      29.64S VSB 1
S. S. MARIE    MOCLDY    60  57  89 W12       29.62R
MUNISING         N/A     63  53  70 W7        29.66S
$$
MIZ004>006-011>014-085-030900-
CENTRAL UPPER MICHIGAN

CITY           SKY/WX    TMP DP  RH WIND       PRES   REMARKS
MANISTIQUE     CLEAR     55  54  94 NW7       29.66R
ESCANABA       PTCLDY    55  54  94 W8        29.69R
MENOMINEE      MOCLDY    59  54  82 NW3       29.71R
SAWYER-GWINN   CLEAR     53  51  91 W5        29.70S
$$
MIZ001>003-009>011-084-030900-
WESTERN UPPER MICHIGAN

CITY           SKY/WX    TMP DP  RH WIND       PRES   REMARKS
IRON MOUNTAIN  CLOUDY    58  52  80 W3        29.72S
HOUGHTON       CLOUDY    59  51  75 NW10      29.69R
COPPER HARBOR    N/A     60  53  77 N9        29.66R
IRONWOOD       CLOUDY    57  52  82 W5        29.74S
$$

ABBREVIATIONS USED IN REMARKS
   TC - TEMPERATURE IN CELSIUS
  WCI - WIND CHILL INDEX
   HX - HEAT INDEX
  VSB - VISIBILITY




USA.gov is the U.S. government's official web portal to all federal, state and local government web resources and services.